Theta_e
350 356 365 366 367 366 364 365 367 367 367 368 367 365 365 364 364 363 362 361 360 361 360 361 361 360 360 361 360 361 361 362 360 362 362 363 362 360 359 360 358 354 358
352 357 366 367 367 366 366 367 367 366 365 366 366 365 363 362 362 362 361 362 361 359 362 362 361 360 360 360 360 360 361 361 360 360 362 362 362 357 353 357 357 354 357
354 358 361 366 368 366 366 367 367 366 365 366 366 365 363 363 363 363 362 362 361 362 362 361 360 360 361 360 360 358 360 360 358 360 361 353 354 358 353 356 360 361 362
356 358 360 365 367 366 365 368 367 364 365 366 366 365 363 363 363 363 360 361 362 362 361 361 360 359 359 359 358 357 357 356 354 352 347 350 349 355 359 361 360 361 360
355 357 360 366 365 365 365 366 367 367 364 364 364 364 363 364 363 362 362 362 362 361 361 362 360 357 359 358 356 356 356 352 350 345 343 345 348 356 360 360 359 358 357
353 355 363 365 364 364 364 364 365 365 364 365 365 364 364 364 363 362 361 361 363 362 362 360 359 357 357 358 358 357 359 358 354 341 340 341 350 359 360 360 358 356 355
353 357 360 366 365 363 362 362 363 363 365 365 365 364 365 363 363 363 362 363 362 362 361 360 358 357 356 358 356 360 359 358 347 337 340 341 350 361 358 358 359 359 358
354 356 359 364 365 364 364 362 362 361 363 364 364 364 365 364 364 363 363 362 362 361 360 359 357 357 358 358 357 360 361 359 354 344 343 346 357 361 360 359 358 358 357
354 353 354 351 354 358 362 361 361 361 361 361 362 363 364 364 365 363 362 361 361 361 360 359 356 357 358 360 354 355 361 359 347 348 347 349 361 360 358 356 356 355 354
350 352 351 350 352 353 353 360 361 361 360 361 362 362 364 364 364 362 364 363 361 361 360 357 357 358 358 358 356 354 357 358 347 346 348 349 361 359 358 357 356 356 356
347 349 350 350 350 349 350 352 360 361 360 359 359 362 361 353 356 354 359 361 361 360 360 358 357 359 356 353 354 358 350 344 345 347 348 354 361 357 357 357 357 358 358
344 347 348 348 349 349 356 351 351 352 349 350 351 352 353 353 353 354 357 362 361 361 360 360 357 357 353 343 345 352 344 345 347 347 348 359 360 358 357 357 357 357 357
344 347 347 348 348 347 350 350 350 349 349 349 350 352 352 353 350 354 350 352 353 359 352 349 347 346 349 345 352 345 345 345 345 344 350 361 362 359 358 358 358 358 358
342 345 348 349 347 344 347 348 348 346 346 346 348 351 340 343 345 346 347 347 347 348 340 344 344 347 342 344 342 343 344 346 348 347 349 361 364 363 360 359 359 359 359
340 345 347 346 348 345 346 346 346 343 345 347 350 350 337 342 344 347 344 344 345 345 346 349 343 344 345 344 344 343 342 347 348 350 350 361 364 364 364 360 360 360 360
342 344 346 343 343 345 346 346 345 346 347 348 348 348 347 346 348 346 344 344 348 349 343 342 344 344 345 347 344 346 346 345 349 349 352 355 365 365 362 364 362 361 361
343 344 344 344 346 345 346 346 347 347 348 347 345 347 349 348 350 349 346 348 345 345 345 345 348 345 345 343 339 347 347 347 346 345 350 352 357 362 364 365 364 365 364
341 343 346 349 347 346 346 347 347 347 346 346 344 348 346 347 349 349 350 346 343 342 344 344 341 340 341 340 339 336 340 347 348 344 345 352 352 355 360 363 365 364 362
342 343 345 346 345 348 348 347 345 345 341 343 343 345 344 348 350 350 349 347 345 343 342 341 340 338 337 338 337 338 344 344 346 350 351 351 349 352 352 360 364 363 363
342 343 343 344 345 346 345 344 344 343 340 340 340 341 346 348 349 350 349 348 349 345 337 339 338 336 336 333 343 341 340 339 342 340 350 349 347 351 349 352 356 357 365
342 341 341 341 344 344 342 341 340 339 338 338 338 343 346 347 348 347 348 350 347 339 338 341 338 333 337 341 336 336 336 343 337 343 342 341 343 352 348 351 353 352 356
341 341 340 343 344 344 344 342 340 339 340 339 342 346 349 344 349 346 346 345 348 346 340 336 337 336 336 336 332 330 331 332 335 339 345 343 348 351 356 352 352 349 347
339 341 340 343 344 343 344 341 339 338 339 339 338 340 346 343 348 350 348 348 346 347 343 344 339 337 331 329 332 333 327 325 326 337 342 343 345 346 346 349 353 351 347
340 342 342 343 343 343 343 340 338 336 332 336 338 339 346 347 343 350 346 346 347 348 345 346 348 343 328 322 329 337 331 334 327 324 334 336 341 341 339 342 348 354 352
341 341 342 342 342 342 343 340 337 335 334 337 339 334 337 346 347 348 348 345 348 347 346 345 347 344 346 338 339 339 338 338 337 329 327 329 338 339 340 340 349 349 354
341 342 341 340 339 341 342 340 336 336 337 336 338 335 336 341 347 348 349 345 347 347 345 345 345 346 347 346 345 343 338 336 332 330 327 328 330 335 339 342 343 349 354
Wind_Speed
6 8 13 14 15 15 14 13 14 14 15 15 15 16 16 16 14 14 13 12 9 8 8 10 9 9 8 10 9 9 10 10 11 15 15 14 14 14 12 13 13 10 16
12 10 14 14 16 16 14 13 13 14 15 15 15 15 15 15 14 13 12 11 8 8 10 11 9 8 8 10 10 9 11 12 11 12 16 14 14 12 9 12 12 10 15
11 11 11 14 16 17 14 13 13 15 15 14 14 14 14 14 13 13 12 12 10 10 12 11 9 7 7 8 10 10 10 12 11 12 11 5 5 11 11 7 11 11 13
11 9 8 13 15 16 16 14 14 15 15 14 14 13 13 13 14 14 13 12 12 11 11 11 8 6 7 7 6 8 6 8 10 10 3 4 7 9 10 12 10 10 11
11 7 10 14 14 16 16 15 14 15 15 15 14 14 13 12 14 14 14 14 12 11 10 9 7 4 6 7 6 6 4 4 6 6 4 1 4 8 11 11 10 8 9
10 7 12 14 14 15 14 14 14 14 15 14 14 14 14 14 13 14 13 13 12 10 9 6 5 2 3 5 8 9 9 7 5 3 3 2 4 11 11 9 10 10 9
11 8 11 13 13 13 13 13 12 12 12 13 14 13 14 14 13 14 13 12 10 8 7 6 3 1 1 4 5 8 10 10 4 4 3 3 4 12 11 9 9 9 8
11 8 7 12 12 13 13 12 11 11 12 12 12 13 13 13 13 13 12 10 9 8 6 4 3 2 6 5 6 4 7 8 9 5 4 4 7 12 13 11 10 8 8
10 7 6 6 8 9 9 10 11 11 12 12 11 12 12 13 11 10 11 10 8 7 5 3 1 0 2 7 7 4 4 8 6 4 5 2 8 12 13 12 11 10 9
9 7 7 6 5 5 5 11 10 11 13 12 12 12 11 12 11 10 8 7 7 6 4 2 0 2 6 10 7 11 6 7 5 3 2 2 9 12 13 13 12 11 11
6 8 7 6 5 4 4 6 9 11 12 12 10 11 8 3 4 7 7 8 7 6 4 2 5 6 5 6 7 8 9 3 4 3 2 7 10 13 13 12 12 11 11
8 7 6 6 6 6 5 3 4 5 4 4 4 3 4 3 3 5 7 9 8 7 3 11 9 2 6 8 3 3 2 3 3 2 2 10 12 13 12 12 11 11 12
12 9 7 6 6 6 4 3 2 3 3 3 3 3 3 2 2 2 2 2 3 2 7 8 7 6 9 6 2 3 1 3 2 2 4 12 14 13 12 12 13 13 13
10 7 8 7 7 6 3 3 3 3 3 3 3 3 3 1 2 1 2 2 3 4 7 7 3 5 6 5 6 6 5 3 2 2 5 13 14 14 14 13 12 12 11
8 9 10 9 7 5 5 4 4 4 4 3 3 3 3 3 2 3 3 2 3 5 5 8 4 3 4 5 2 2 5 5 4 2 3 16 14 12 12 13 12 11 10
12 12 11 8 6 6 5 6 4 4 4 3 2 3 3 1 4 1 1 3 3 4 4 4 8 4 2 4 7 6 4 5 5 2 2 5 14 12 12 12 11 11 10
14 13 11 9 8 7 7 6 5 5 4 3 1 3 2 3 2 3 5 7 5 3 3 5 9 5 3 7 8 6 1 3 3 5 4 3 5 11 11 12 11 9 10
13 14 13 11 11 10 6 6 4 4 3 1 1 2 1 2 2 5 7 5 4 4 3 5 6 5 6 6 3 8 4 4 4 4 5 6 5 4 7 10 9 8 9
13 11 12 12 11 10 6 4 4 5 4 3 2 2 2 1 4 5 5 6 8 4 3 4 3 5 8 5 4 6 5 5 6 5 7 5 4 5 4 7 8 8 10
12 11 11 8 9 8 6 4 1 3 3 3 4 4 2 3 5 5 4 3 4 6 5 3 3 3 1 4 6 4 5 7 4 4 5 4 3 5 4 4 3 4 10
12 12 12 9 7 7 5 6 4 4 2 1 4 6 5 4 4 4 3 3 3 3 5 6 2 4 2 2 3 2 2 4 2 4 4 4 4 6 7 5 3 2 3
16 13 10 11 11 7 7 6 4 4 3 3 3 3 5 5 4 5 4 3 3 4 4 4 2 2 1 1 2 1 3 2 4 1 3 3 7 4 4 6 6 5 3
16 16 14 12 13 10 10 5 3 3 3 2 2 2 4 5 5 5 5 4 4 4 4 5 5 6 2 1 3 2 2 2 1 2 3 3 1 1 4 6 7 6 5
18 15 14 14 13 10 11 9 7 8 4 4 4 3 4 6 6 6 6 5 4 3 4 5 5 4 5 3 1 4 3 2 2 2 4 5 3 3 5 2 4 7 7
18 16 15 15 13 11 12 11 8 5 4 4 4 6 6 6 6 6 6 6 5 3 2 2 2 5 4 3 3 2 2 1 3 3 4 2 3 4 3 5 5 5 7
18 16 16 16 14 12 13 11 12 9 8 5 5 4 4 4 4 6 6 6 5 5 5 4 3 3 4 3 2 3 2 3 2 2 1 3 3 4 4 3 3 3 3
Wind_Direction
175 160 155 152 141 133 128 120 116 110 111 109 111 111 112 114 114 117 122 123 130 125 117 114 116 127 125 122 124 121 121 128 121 129 124 125 123 121 116 127 124 126 125
149 157 157 153 137 135 134 128 123 119 112 113 116 118 121 120 121 123 126 129 130 128 120 117 123 129 123 120 124 132 125 114 106 118 128 130 126 129 125 132 133 135 127
142 149 156 149 140 137 140 128 127 129 130 125 123 127 128 128 125 127 131 135 140 132 126 123 133 137 123 118 122 132 140 135 126 127 126 115 119 133 132 129 145 149 130
139 140 153 150 144 143 143 141 139 134 133 131 134 131 131 131 128 128 133 134 138 136 126 125 130 134 118 116 118 135 158 143 131 103 75 109 132 134 138 136 146 133 126
135 139 153 147 143 144 147 149 145 139 134 130 128 131 127 126 128 125 127 128 133 136 133 132 137 141 114 108 121 136 162 152 146 136 102 43 129 142 137 144 142 140 136
136 134 147 150 152 150 149 148 146 142 140 137 135 134 138 130 132 130 135 137 145 134 133 140 154 169 125 131 156 168 182 195 200 167 137 262 145 143 148 148 153 156 151
137 147 155 158 160 154 153 156 149 144 146 140 138 142 139 137 131 137 141 139 137 151 146 167 150 310 165 133 147 168 188 197 173 188 193 211 170 149 152 152 169 152 153
136 139 158 156 166 165 164 158 159 156 151 145 145 139 137 139 137 144 142 143 150 171 165 169 123 23 86 119 97 140 187 200 175 175 190 204 178 160 153 150 152 160 160
143 140 142 162 171 170 164 159 163 161 150 148 144 144 143 139 139 150 148 155 169 184 182 178 113 20 171 113 74 127 214 158 123 138 184 178 183 167 159 161 168 173 182
146 153 159 170 178 155 150 166 157 162 156 151 146 150 149 142 148 164 158 175 182 203 204 205 74 313 40 45 32 56 33 112 100 74 153 205 196 182 169 168 177 180 192
162 163 168 164 160 154 164 186 168 154 155 157 147 146 143 108 153 170 172 198 198 221 241 257 43 45 23 322 353 30 62 4 62 25 170 206 202 188 182 178 186 188 197
177 176 181 156 161 174 177 140 139 133 104 108 110 110 115 146 212 188 191 213 210 229 292 37 52 61 249 56 358 95 109 142 69 357 198 196 205 192 187 187 193 198 203
171 172 181 166 169 173 162 135 102 97 106 111 145 142 146 174 287 209 229 226 227 287 65 57 44 39 26 9 25 332 37 55 26 292 236 196 209 198 195 199 200 204 205
171 163 168 166 162 180 149 128 126 125 139 165 175 187 152 169 208 133 223 264 4 62 84 77 18 62 26 1 13 336 340 1 313 236 226 208 220 209 197 204 206 211 214
163 167 176 173 169 174 159 150 152 166 153 165 205 187 184 130 238 264 224 164 90 96 123 109 102 45 328 348 38 281 16 324 284 193 202 207 222 217 204 202 209 214 219
171 180 180 189 180 169 164 174 170 156 159 139 199 191 203 221 278 218 144 106 119 155 171 96 122 115 343 326 348 326 306 352 333 308 185 222 214 213 209 205 211 219 221
175 175 187 182 177 171 169 171 171 160 170 159 174 160 99 175 289 88 112 93 148 170 150 108 108 145 106 44 351 265 106 312 352 345 307 265 255 231 214 211 205 220 220
163 175 178 180 178 173 162 189 173 163 162 147 221 172 242 74 95 78 94 119 126 112 90 102 132 132 111 137 261 303 11 343 201 238 229 202 204 221 251 232 211 202 217
172 161 170 172 171 161 146 165 185 142 155 166 229 201 264 302 79 96 86 141 155 127 125 157 173 161 162 163 185 239 273 277 260 248 241 235 237 201 201 243 219 212 204
171 168 167 171 169 161 137 145 151 127 182 158 195 226 257 245 103 101 99 117 160 138 149 181 163 194 184 141 173 223 244 251 239 241 202 202 204 224 200 257 235 222 212
172 170 177 166 172 152 141 157 166 184 154 211 189 207 222 229 134 113 108 116 168 139 174 159 160 91 48 308 55 73 178 256 318 130 146 183 202 199 187 191 212 240 256
176 174 173 176 166 171 158 168 158 159 163 189 179 215 204 201 180 153 152 167 187 144 159 148 104 69 358 50 104 117 34 309 56 44 214 198 189 169 190 185 186 204 237
177 180 179 176 173 174 173 151 105 67 70 104 181 218 208 198 198 179 164 178 161 163 172 168 171 151 192 296 216 142 80 233 55 324 309 279 186 215 210 185 198 182 206
186 182 176 174 173 177 169 173 174 185 155 194 182 191 205 203 209 197 198 193 186 173 130 159 193 164 152 196 294 225 250 188 120 327 283 290 268 230 246 277 201 186 198
178 181 176 172 175 176 180 179 175 173 179 178 178 193 210 217 208 214 202 195 187 187 181 195 177 160 184 159 183 156 193 120 204 183 270 318 300 272 259 258 210 197 207
178 173 173 173 179 177 182 180 185 183 186 175 186 193 202 214 216 210 207 195 196 185 204 203 231 211 195 177 183 148 153 152 193 175 330 294 244 246 202 265 294 241 197